Location: Boiro
(42.6475°N, 8.8834°W)
Time: 11:56:52
(UTC+02:00)

SL-8 DEB - Pass Details

Date: 11 July 2022
Orbit: 890 x 1013 km, 83.1° (Epoch: 16 August)

Event Time Altitude Azimuth Distance (km) Brightness Sun altitude
Rises 02:18:59 0° 330° (NNW) 3,552 ? -25.0°
Reaches altitude 10° 02:23:47 10° 296° (WNW) 2,580 ? -25.1°
Maximum altitude 02:25:03 11° 283° (WNW) 2,521 ? -25.1°
Drops below altitude 10° 02:26:19 10° 270° (W) 2,567 ? -25.1°
Enters shadow 02:28:15 - 253° (WSW) 2,827 ? -25.2°
